Regional Weather Roundup
Issued by NWS State College, PA

Home | Current Version | Previous Version | Text Only | Print | Product List | Glossary On
Versions: 1 2 3 4 5 6 7 8 9 10 11 12 13 14 15 16 17 18 19 20 21 22 23 24 25 26 27 28 29 30 31 32 33 34 35 36 37 38 39 40 41 42 43 44 45 46 47 48 49 50
000
ASUS41 KCTP 051203
RWRCTP

REGIONAL WEATHER ROUNDUP
NATIONAL WEATHER SERVICE STATE COLLEGE PA
700 AM EST FRI FEB 05 2016

Note: "fair" indicates few or no clouds below 12,000 feet with no
significant weather and/or obstructions to visibility.

* = STATION THAT DOES NOT REPORT PRECIPITATION /E.G. RAIN...SNOW...ETC/
    THUNDER OR FOG.

PAZ002>004-007>009-013>016-020>023-029>032-051300-
WESTERN PENNSYLVANIA

CITY           SKY/WX    TMP DP  RH WIND       PRES   REMARKS
ERIE           CLOUDY    29  19  66 NW10      30.30R
MEADVILLE      LGT SNOW  25  19  78 NW8       30.25R
FRANKLIN*      CLOUDY    25  19  80 NW8       30.26R VSB 1
NEW CASTLE     CLOUDY    26  20  77 W10       30.30R
BEAVER COUNTY  FLURRIES  25  19  80 NW8       30.28
BUTLER*        CLOUDY    27  19  74 NW5       30.30R
PITTSBURGH INT FLURRIES  26  19  74 NW16      30.28R WCI  14
PITTSBURGH     LGT SNOW  28  21  75 NW9       30.26R
INDIANA*       CLOUDY    27  23  86 NW6       30.26R
LATROBE        CLOUDY    27  19  74 NW12      30.27R
WASHINGTON CO* CLOUDY    27  16  63 W7        30.29R
$$

PAZ004>006-010>012-017>019-024>028-033>037-041-042-045-046-049>053-051300-
CENTRAL PENNSYLVANIA

CITY           SKY/WX    TMP DP  RH WIND       PRES   REMARKS
BRADFORD       CLOUDY    26  19  74 NW8       30.15R
DUBOIS         CLOUDY    26  21  81 NW10      30.18R
CLEARFIELD     FLURRIES  29  20  69 NW10      30.18R
JOHNSTOWN      LGT SNOW  23  17  78 NW10      30.15R WCI  12
ALTOONA        CLOUDY    29  20  69 NW16G23   30.17R
STATE COLLEGE  NOT AVBL
WILLIAMSPORT   CLOUDY    36  23  59 NW6       30.18R
SELINSGROVE    CLOUDY    35  25  66 N8        30.17R
FT INDIANTOWN  CLOUDY    37  23  58 N10G16    30.12F
CAPITAL CITY   CLOUDY    39  23  52 N9        30.15R
HARRISBURG     CLOUDY    38  24  57 NW10      30.13R
YORK           CLOUDY    36  27  69 NW8       30.12S
$$

PAZ038>040-043-044-047-048-054-055-060>062-067>071-051300-
EASTERN PENNSYLVANIA

CITY           SKY/WX    TMP DP  RH WIND       PRES   REMARKS
SCRANTON       CLOUDY    33  23  66 N7        30.13R
MOUNT POCONO   CLOUDY    30  17  58 N15G23    30.03R
ALLENTOWN      CLOUDY    37  22  54 N13       30.10R
QUAKERTOWN*    CLOUDY    32  32 100 NE3       30.10F
READING        CLOUDY    36  26  67 N7        30.10R
LANCASTER      CLOUDY    36  26  67 N13       30.09F
COATESVILLE    LGT SNOW  34  34 100 CALM      30.10S
POTTSTOWN      CLOUDY    33  31  92 N3        30.11F
BLUE BELL        N/A     32  32 100 CALM      30.09S
DOYLESTOWN     LGT SNOW  31  31 100 N7        30.08S FOG
WILLOW GROVE   NOT AVBL
NORTH PHILA    LGT SNOW  34  31  88 N13G22    30.14R VSB 1
PHILADELPHIA   LGT SNOW N/A N/A N/A N17       30.13R FOG
$$



USA.gov is the U.S. government's official web portal to all federal, state and local government web resources and services.